Location: Greenwich
(51.4790°N, 0.0090°E)
Time: 22:21:29
(UTC+01:00)

Vanguard 3 - Pass Details

Date: 22 April 2024
Orbit: 509 x 3233 km, 33.3° (Epoch: 25 May)

Event Time Altitude Azimuth Distance (km) Brightness Sun altitude
Exits shadow 03:52:41 13° 199° (SSW) 5,070 10.6 -15.9°
Maximum altitude 04:00:49 22° 164° (SSE) 3,789 10.3 -15.0°
Drops below altitude 10° 04:08:16 10° 120° (ESE) 3,885 10.8 -14.1°
Sets 04:11:47 0° 104° (ESE) 4,460 11.4 -13.7°
